User: anonymous   Login
Location: Borea
(45.6167°N, 23.0167°E)
Time: 09:25:00
(UTC+00:00)
Language:

Cosmos 676 Rocket - Orbit

View from above orbital plane
View from above orbital plane
View from above satellite
View from above satellite

Ground track
Ground track

The orbit data is extracted from the following two-line orbital elements,

1 07434U 74071B   25131.78089741  .00000339  00000-0  12046-3 0  9994
2 07434  74.0452 312.0739 0021039 230.9057 129.0226 14.37980264650870
Epoch (UTC): 11 May 2025 18:44:29
Eccentricity: 0.0021039
inclination: 74.0452°
perigee height: 750 km
apogee height: 780 km
right ascension of ascending node: 312.0739°
argument of perigee: 230.9057°
revolutions per day: 14.37980264
mean anomaly at epoch: 129.0226°
orbit number at epoch: 65087

The dashed part of the orbit path shows where the satellite is in the earth's shadow,  

DLR